[[{"header":{"parameterUnit":"m.s-1","parameterCategory":1,"la1":30.2991,"la2":30.254,"lo1":-89.0895,"lo2":-89.0444,"dy":0.0017,"dx":0.0017,"nx":28,"ny":28,"refTime":"2025-05-23T21:00:00:Z","depth":0,"parameterNumber":2,"parameterNumberName":"U-component_of_WINDS"},"data":[0,0,0,0,0,0,0,0,0,0,0,0,0,0,0,0,0,0,0,0,0,0,0,0,0,0,0,0,0,0,0,0,0,0,0,0,0,0,0,0,0,0,0,0,0,0,0,0,0,0,0,0,0,0,0,0,0,0,1.0438,1.0439,0,1.052,1.0521,1.0522,1.0585,1.0586,1.0586,1.0587,1.0671,1.0673,1.0675,0,0,0,0,0,0,0,0,0,0,0,0,0,1.0335,1.0336,1.0438,1.0439,1.044,1.052,1.0521,1.0522,1.0585,1.0586,1.0587,1.0587,1.0671,1.0673,1.0675,0,0,0,0,0,0,0,0,0,0,0,0,0,1.0395,1.0337,1.0438,1.0481,1.0486,1.052,1.0521,1.0523,1.0585,1.0586,1.0587,1.0588,1.067,1.0673,1.0675,1.0673,0,0,1.0683,1.0684,0,0,0,0,0,0,0,0,1.0391,1.0398,1.0473,1.0478,1.0483,1.0543,1.0516,1.0573,1.0585,1.0547,1.0587,1.0588,1.0628,1.0634,1.0648,1.0677,1.0681,1.0683,1.0685,1.0686,1.0686,0,0,0,0,0,0,0,1.0387,1.0395,1.047,1.0474,1.048,1.0496,1.0506,1.0527,1.0582,1.0551,1.0555,1.0564,1.0631,1.0645,1.065,1.0682,1.0683,1.0685,1.0687,1.0688,1.0715,1.0714,0,0,0,0,0,0,1.0376,1.0391,1.0468,1.0473,1.0438,1.0497,1.0508,1.0523,1.0582,1.0591,1.0563,1.0567,1.064,1.0647,1.0653,1.0656,1.0686,1.0688,1.069,1.0716,1.0715,1.0714,0,0,0,0,0,0,1.0374,1.0382,1.0464,1.0433,1.0445,1.0498,1.0515,1.0524,1.0539,1.0591,1.0601,1.0568,1.0641,1.065,1.0668,1.066,1.0689,1.0692,1.0717,1.0716,1.0714,1.066,0,0,0,0,0,0,1.037,1.0381,1.0381,1.0433,1.0446,1.0477,1.0514,1.0525,1.0543,1.0548,1.0598,1.0607,1.0643,1.0664,1.067,1.0664,1.0694,1.0718,1.0716,1.0715,1.0663,1.0657,1.0652,0,0,0,0,0,1.0366,1.0362,1.038,1.0389,1.0447,1.0477,1.0485,1.0525,1.0542,1.0542,1.0576,1.0606,1.0659,1.0665,1.0673,1.0667,1.0719,1.0717,1.0715,1.0665,1.0658,1.0652,0,0,0,0,0,0,1.0306,1.0369,1.0391,1.0403,1.0434,1.0487,1.0489,1.0516,1.0544,1.0547,1.0597,1.0608,1.0621,1.0646,1.0651,1.0669,1.0693,1.0692,1.0652,1.0646,1.0641,1.0635,1.0696,0,0,0,0,0,1.0295,1.0314,1.0367,1.0373,1.0387,1.0435,1.045,1.0478,1.0513,1.0526,1.0562,1.0594,1.0619,1.0633,1.0659,1.0666,1.0679,1.0666,1.0661,1.0656,1.0656,1.0663,1.0658,1.0708,1.0708,1.0708,0,0,1.027,1.0307,1.0316,1.0362,1.0389,1.0408,1.0446,1.0464,1.0478,1.0529,1.0549,1.0576,1.0615,1.0629,1.0636,1.065,1.0644,1.0654,1.065,1.0652,1.066,1.0656,1.0651,1.0707,1.0707,1.0707,0,0,1.0236,1.0265,1.0274,1.0301,1.0343,1.0375,1.0376,1.0426,1.0446,1.0466,1.0505,1.0523,1.0564,1.0591,1.061,1.0586,1.0615,1.0593,1.0565,1.0572,1.0568,1.0565,1.0557,1.0554,1.0592,1.0592,1.0592,0,1.0201,1.0231,1.0274,1.0291,1.031,1.0357,1.0366,1.039,1.0437,1.045,1.0464,1.0517,1.0546,1.0567,1.0561,1.0575,1.0579,1.0588,1.0565,1.0562,1.056,1.0553,1.055,1.0589,1.0589,1.0589,1.059,0,1.0186,1.0206,1.0208,1.0253,1.0272,1.0285,1.033,1.0345,1.0372,1.0402,1.0423,1.046,1.0495,1.0501,1.0528,1.0526,1.0534,1.0555,1.0581,1.0551,1.0546,1.0544,1.0585,1.0586,1.0587,1.0587,0,0,1.0116,1.0186,1.0186,1.0208,1.0257,1.0274,1.0288,1.0322,1.0334,1.0365,1.0379,1.0412,1.0434,1.0455,1.0485,1.049,1.0471,1.0512,1.0514,1.0504,1.0472,1.0456,1.0452,1.0489,1.0489,1.0489,1.0469,0,1.009,1.012,1.016,1.0176,1.0196,1.0241,1.0254,1.0286,1.0314,1.0335,1.0368,1.0391,1.0416,1.043,1.0437,1.0471,1.0465,1.0473,1.0504,1.0504,1.0493,1.045,1.0432,1.0412,1.0468,1.0467,1.0467,0,1.0064,1.0094,1.0112,1.0161,1.0171,1.0182,1.0216,1.0236,1.0273,1.0294,1.0318,1.035,1.0369,1.0391,1.0417,1.0422,1.0437,1.0455,1.0455,1.0461,1.0484,1.0455,1.0407,1.0404,1.0464,1.0464,1.0464,0,1.0013,1.0057,1.0074,1.0091,1.0148,1.0155,1.0179,1.0218,1.0236,1.0266,1.0278,1.0309,1.0327,1.0351,1.0391,1.0403,1.0413,1.0439,1.0432,1.0431,1.0433,1.0432,1.0387,1.044,1.044,1.044,1.044,0,0.9981,0.999,1.0052,1.0062,1.0075,1.0121,1.0131,1.016,1.0194,1.0211,1.0251,1.0266,1.0318,1.0339,1.0371,1.0388,1.0396,1.0414,1.0422,1.041,1.0408,1.0422,1.0424,1.044,1.044,1.044,1.044,0,0.9926,0.9967,0.9989,1.0042,1.0055,1.0062,1.0107,1.0119,1.0151,1.0172,1.0179,1.0229,1.0256,1.0298,1.0338,1.0359,1.0372,1.0385,1.0359,1.0364,1.0356,1.0356,1.0319,1.0316,1.0369,1.0369,1.0368,0,0.9903,0.9911,0.9965,0.998,1.0003,1.0025,1.0044,1.009,1.0108,1.0151,1.0158,1.0188,1.0215,1.0257,1.0296,1.0327,1.0342,1.0327,1.0347,1.0335,1.0343,1.0343,1.0344,1.0322,1.0321,1.0321,1.032,0,0.9858,0.9878,0.9904,0.9937,0.9959,0.9987,1.0017,1.0026,1.0078,1.0096,1.0125,1.0146,1.0186,1.0216,1.0253,1.0278,1.0308,1.0313,1.0314,1.0302,1.0288,1.0297,1.0347,1.0314,1.0315,1.0315,1.0316,1.0316,0.9819,0.983,0.9869,0.9897,0.9924,0.9952,0.9966,0.9999,1.0024,1.0061,1.0086,1.0113,1.0152,1.0203,1.0227,1.0249,1.0262,1.0262,1.0263,1.0262,1.0258,1.0283,1.0256,1.0256,1.0256,1.0257,1.0257,0,0.9778,0.9806,0.983,0.9872,0.9893,0.992,0.9954,0.9971,0.9994,1.0027,1.0053,1.0086,1.0116,1.0158,1.019,1.02,1.0215,1.0207,1.0207,1.0213,1.0244,1.0241,1.0195,1.0195,1.0195,1.0195,1.0195,1.0195,0.9759,0.9778,0.9803,0.9836,0.9864,0.9892,0.9909,0.9935,0.9962,0.9997,1.0022,1.0049,1.0086,1.0121,1.015,1.0161,1.0172,1.016,1.0176,1.0205,1.0211,1.0216,1.0214,1.0162,1.0162,1.0143,1.0143,1.0143]},{"header":{"parameterUnit":"m.s-1","parameterCategory":1,"la1":30.2991,"la2":30.254,"lo1":-89.0895,"lo2":-89.0444,"dy":0.0017,"dx":0.0017,"nx":28,"ny":28,"refTime":"2025-05-23T21:00:00:Z","depth":0,"parameterNumber":3,"parameterNumberName":"V-component_of_WINDS"},"data":[0,0,0,0,0,0,0,0,0,0,0,0,0,0,0,0,0,0,0,0,0,0,0,0,0,0,0,0,0,0,0,0,0,0,0,0,0,0,0,0,0,0,0,0,0,0,0,0,0,0,0,0,0,0,0,0,0,0,2.2277,2.2277,0,2.219,2.2189,2.2188,2.2193,2.2194,2.2195,2.2196,2.21,2.2096,2.2093,0,0,0,0,0,0,0,0,0,0,0,0,0,2.2441,2.2438,2.2278,2.2276,2.2275,2.219,2.2189,2.2188,2.2192,2.2194,2.2196,2.2197,2.2101,2.2097,2.2092,0,0,0,0,0,0,0,0,0,0,0,0,0,2.2363,2.2437,2.2278,2.2268,2.2266,2.2191,2.2189,2.2188,2.2192,2.2194,2.2196,2.2198,2.2103,2.2097,2.2092,2.2019,0,0,2.2075,2.2072,0,0,0,0,0,0,0,0,2.2368,2.2357,2.227,2.2268,2.2266,2.2204,2.2212,2.2131,2.2192,2.222,2.2196,2.2199,2.2133,2.2125,2.2104,2.2014,2.201,2.2074,2.2071,2.2068,2.2067,0,0,0,0,0,0,0,2.2373,2.2361,2.2243,2.2269,2.2266,2.2265,2.2256,2.2196,2.2166,2.2218,2.2218,2.2208,2.2132,2.2109,2.2102,2.2009,2.2074,2.2069,2.2066,2.2064,2.1854,2.1852,0,0,0,0,0,0,2.2382,2.2366,2.2246,2.224,2.2323,2.2261,2.2251,2.2222,2.2167,2.2161,2.2206,2.2208,2.2118,2.2108,2.2098,2.2009,2.2068,2.2063,2.206,2.1856,2.1853,2.1851,0,0,0,0,0,0,2.2385,2.2371,2.2249,2.2303,2.2287,2.2256,2.2224,2.2219,2.2197,2.2159,2.2153,2.2189,2.2119,2.2106,2.2039,2.2005,2.206,2.2055,2.1859,2.1855,2.1852,2.1829,0,0,0,0,0,0,2.239,2.2372,2.2346,2.2302,2.2285,2.2193,2.2222,2.2216,2.2188,2.219,2.2141,2.2135,2.212,2.2047,2.2033,2.1999,2.2051,2.1861,2.1857,2.1853,2.1833,2.1826,2.1819,0,0,0,0,0,2.2396,2.2342,2.2345,2.233,2.2251,2.2191,2.2181,2.2166,2.2185,2.2157,2.2133,2.2136,2.2012,2.204,2.2025,2.1988,2.1863,2.1858,2.1853,2.1836,2.1827,2.182,0,0,0,0,0,0,2.2379,2.2336,2.2338,2.2269,2.2234,2.2192,2.2156,2.2158,2.2115,2.2118,2.21,2.2089,2.2021,2.1998,2.203,2.1914,2.194,2.1931,2.1932,2.1923,2.1916,2.1923,2.2046,0,0,0,0,0,2.2368,2.2325,2.2289,2.2231,2.2213,2.2188,2.2161,2.2154,2.2115,2.21,2.207,2.2031,2.1983,2.1952,2.1906,2.183,2.1818,2.1797,2.179,2.1785,2.1777,2.1734,2.1724,2.1835,2.1835,2.1835,0,0,2.2343,2.2314,2.2288,2.2227,2.2199,2.2152,2.2175,2.2125,2.209,2.2092,2.2027,2.2003,2.1959,2.1887,2.1853,2.1865,2.1744,2.1778,2.1774,2.177,2.1728,2.1717,2.1708,2.1831,2.1832,2.1832,0,0,2.2275,2.2249,2.2198,2.217,2.2128,2.2112,2.21,2.2057,2.2043,2.1978,2.1978,2.1935,2.1853,2.1821,2.1794,2.1713,2.1714,2.1699,2.1663,2.1621,2.1612,2.1604,2.1574,2.1564,2.1691,2.1691,2.1691,0,2.2249,2.2182,2.2171,2.2121,2.2093,2.2095,2.2042,2.2014,2.1958,2.1938,2.1953,2.185,2.182,2.174,2.172,2.1699,2.1683,2.1703,2.1615,2.1607,2.1599,2.157,2.1559,2.169,2.169,2.169,2.169,0,2.2151,2.2104,2.2067,2.2016,2.1984,2.1932,2.1912,2.1881,2.1876,2.1857,2.179,2.1754,2.1701,2.1681,2.1675,2.16,2.1608,2.1619,2.1644,2.1587,2.156,2.1549,2.1687,2.1688,2.1688,2.1689,0,0,2.2068,2.2013,2.1999,2.1976,2.193,2.1892,2.184,2.179,2.1763,2.1724,2.1679,2.161,2.1619,2.1589,2.1579,2.1543,2.148,2.1557,2.1556,2.1543,2.1393,2.1384,2.1372,2.1481,2.1479,2.1477,2.1396,0,2.1994,2.1904,2.1893,2.1812,2.1768,2.1769,2.1724,2.1689,2.1671,2.1628,2.1607,2.1558,2.1575,2.1556,2.1521,2.1495,2.1449,2.1501,2.1436,2.1434,2.1446,2.1358,2.1349,2.1274,2.1386,2.1384,2.1382,0,2.1895,2.1856,2.1772,2.1732,2.1713,2.1673,2.1625,2.1586,2.1546,2.1535,2.1501,2.1496,2.144,2.1469,2.139,2.1426,2.1399,2.1382,2.1379,2.1371,2.1404,2.1346,2.125,2.1238,2.1366,2.1367,2.1368,0,2.1842,2.1768,2.1708,2.1688,2.1641,2.1612,2.159,2.1553,2.1523,2.1481,2.1462,2.1413,2.1386,2.1347,2.1329,2.1352,2.125,2.1278,2.1238,2.1238,2.1215,2.1216,2.1112,2.12,2.12,2.12,2.12,0,2.1759,2.1707,2.1684,2.1647,2.1588,2.1575,2.1516,2.1495,2.1462,2.1419,2.1416,2.1376,2.1354,2.1309,2.1294,2.123,2.1218,2.1206,2.1202,2.1206,2.1207,2.1186,2.1191,2.1197,2.1198,2.1198,2.1199,0,2.1689,2.1672,2.1606,2.1568,2.1556,2.1515,2.148,2.1443,2.1425,2.137,2.1357,2.1328,2.1275,2.1253,2.1188,2.1178,2.1104,2.1105,2.1118,2.1117,2.1077,2.1081,2.0955,2.0937,2.1037,2.1037,2.1036,0,2.1637,2.1598,2.1555,2.1528,2.1506,2.1461,2.1432,2.1417,2.1386,2.1338,2.1306,2.1254,2.1212,2.1127,2.1098,2.1048,2.1047,2.1006,2.1039,2.1044,2.1045,2.1047,2.1042,2.1,2.0999,2.0998,2.0997,0,2.1546,2.154,2.1499,2.1455,2.142,2.1384,2.1348,2.1325,2.1304,2.1269,2.1217,2.1184,2.1119,2.1066,2.1015,2.099,2.0989,2.0987,2.0975,2.0977,2.0986,2.098,2.11,2.099,2.0991,2.0991,2.0992,2.0992,2.1483,2.1448,2.1413,2.1366,2.1339,2.1306,2.1269,2.1247,2.1204,2.1151,2.1145,2.1088,2.1048,2.0979,2.0953,2.0907,2.0917,2.0899,2.0894,2.089,2.0887,2.0995,2.0897,2.0897,2.0897,2.0898,2.0898,0,2.1391,2.1369,2.1327,2.1279,2.1242,2.1248,2.1209,2.1177,2.1128,2.1092,2.1051,2.099,2.094,2.0908,2.0856,2.0825,2.0824,2.0812,2.0814,2.0808,2.0882,2.0897,2.0814,2.0814,2.0814,2.0814,2.0814,2.0814,2.1339,2.1279,2.1269,2.1195,2.1172,2.1119,2.1096,2.1064,2.1036,2.0969,2.0928,2.0908,2.0873,2.082,2.0773,2.0764,2.0745,2.0732,2.0725,2.0794,2.0802,2.0811,2.0825,2.0729,2.0729,2.0654,2.0654,2.0653]}]]